This is the latest recevied weather packets stored in our database for station/object KI4NG. If no packets are shown the sender has not sent any weather packets the latest 10 day(s).
| Time | Temp. | Humidity | Pressure | Rain* | Wind** | Luminosity | Snow |
|---|---|---|---|---|---|---|---|
| 1777488975 | 20.56° C | 86% | 1012.3 hPa | 0 mm | - | 665 W/m² | - |
| 1777488672 | 20.56° C | 85% | 1012.4 hPa | 0 mm | - | 339 W/m² | - |
| 1777488370 | 20.56° C | 85% | 1012.5 hPa | 0 mm | - | 312 W/m² | - |
| 1777488069 | 20.56° C | 87% | 1012.7 hPa | 0 mm | - | 635 W/m² | - |
| 1777487765 | 20.56° C | 88% | 1012.6 hPa | 0 mm | - | 855 W/m² | - |
| 1777487464 | 20° C | 88% | 1012.6 hPa | 0 mm | - | 962 W/m² | - |
| 1777487161 | 20° C | 90% | 1012.8 hPa | 0 mm | - | 873 W/m² | - |
| 1777486856 | 20° C | 91% | 1012.6 hPa | 0 mm | - | 451 W/m² | - |
| 1777486554 | 19.44° C | 94% | 1012.6 hPa | 0 mm | - | 532 W/m² | - |
| 1777486251 | 18.89° C | 97% | 1012.6 hPa | 0 mm | - | 691 W/m² | - |
| 1777485948 | 18.33° C | 97% | 1012.8 hPa | 0 mm | - | 537 W/m² | - |
| 1777485644 | 18.33° C | 98% | 1012.8 hPa | 0 mm | - | 332 W/m² | - |
| 1777485339 | 18.33° C | 98% | 1012.6 hPa | 1.78 mm | - | 274 W/m² | - |
| 1777485036 | 17.78° C | 99% | 1012.9 hPa | 1.78 mm | - | 318 W/m² | - |
| 1777484734 | 17.78° C | 99% | 1012.7 hPa | 0 mm | - | 141 W/m² | - |
| 1777484430 | 17.78° C | 99% | 1012.6 hPa | 1.27 mm | - | 224 W/m² | - |
| 1777484127 | 17.78° C | 99% | 1012.5 hPa | 1.27 mm | - | 101 W/m² | - |
| 1777483823 | 17.78° C | 98% | 1012.7 hPa | 3.05 mm | - | 93 W/m² | - |
| 1777483520 | 18.33° C | 98% | 1012.7 hPa | 3.05 mm | - | 108 W/m² | - |
| 1777483214 | 18.33° C | 97% | 1012.9 hPa | 1.27 mm | - | 114 W/m² | - |
| 1777482911 | 18.33° C | 97% | 1012.8 hPa | 0 mm | - | 217 W/m² | - |
| 1777482607 | 18.33° C | 97% | 1012.6 hPa | 0 mm | - | 146 W/m² | - |
| 1777482304 | 18.33° C | 97% | 1013 hPa | 0 mm | - | 174 W/m² | - |
| 1777482001 | 18.33° C | 96% | 1012.9 hPa | 0 mm | - | 115 W/m² | - |
| 1777481699 | 18.33° C | 96% | 1012.5 hPa | 0 mm | - | 111 W/m² | - |
* Rain latest hour (hover to see other rain measurements)
** Current wind speed in m/s (hover to see current wind gust speed)